Location: Rogalle
(42.8890°N, 1.1916°E)
Time: 00:52:14
(UTC+00:00)

BREEZE-M DEB (TANK) - Pass Details

Date: 13 December 2025
Orbit: 276 x 13311 km, 49.5° (Epoch: 19 January)

Event Time Altitude Azimuth Distance (km) Brightness Sun altitude
Rises 17:45:29 0° 297° (WNW) 2,415 6.8 -14.8°
Reaches altitude 10° 17:46:52 10° 303° (WNW) 1,815 6.0 -15.1°
Maximum altitude 17:50:29 53° 23° (NNE) 1,149 4.1 -15.7°
Enters shadow 17:58:00 18° 94° (E) 3,976 6.6 -17.0°
